BSAT-4A (42951 NORAD) Tracking and Keplerian Element Data

This shows tracking and keplerian element data for the satellite.

Feedback or suggestion? Click here.




ElementValue
Catalog42951
NameBSAT-4A
Epoch Orbit449
Epoch Day351.45588655
Epoch Year2018
RAAN13.9878
Inclination0.0473
Eccentricity0.0001693
Argument of Perigee330.7457
Mean Anonmoly15.2784
Mean Motion1.00272751
Decay Rate-3.35E-06
L11 42951U 17059B 18351.45588655 -.00000335 00000-0 00000+0 0 9998
L22 42951 0.0473 13.9878 0001693 330.7457 15.2784 1.00272751 4490

Live tracking and technical data element details for BSAT-4A (NORAD 42951). BSAT-4A can be tracked NOW for your location showing map with azimuth and elevation plus other details from your city location.

Track the satellite on the map from your city or location and see movement details for azimuth, elevation, latitude, longitude, range, height, and movement on the map or in text.







IsCatalogInMostPopularTable: catalog: 42951, numindb: 143
Update: records affected: 1



GetName: 42951 BSAT-4A

Hit Count: updated at: Tue, 18 Dec 2018 21:19:01 GMT